• In Spain
  • List of Countries
  • For 7 days
  • Water Temperature
  • Satellite Maps
  • Weather Map
  • Weather Widgets
  • user-avatar
    Login

    Hourly Weather Canberra

    Today, 23 July, Monday

    Time Temperature Precipitation Wind Pressure Humidity
    00:00 +1°C° 0 mm 1 mps 711 mmHg 92%
    01:00 0°C° 0 mm 1 mps 711 mmHg 91%
    02:00 0°C° 0 mm 1 mps 711 mmHg 91%
    03:00 0°C° 0 mm 1 mps 710 mmHg 90%
    04:00 0°C° 0 mm 1 mps 710 mmHg 89%
    05:00 0°C° 0 mm 1 mps 710 mmHg 89%
    06:00 0°C° 0 mm 1 mps 710 mmHg 88%
    07:00 0°C° 0 mm 1 mps 710 mmHg 88%
    08:00 +3°C° 0 mm 1 mps 710 mmHg 76%
    09:00 +5°C° 0 mm 2 mps 710 mmHg 65%
    10:00 +7°C° 0 mm 2 mps 710 mmHg 50%
    11:00 +9°C° 0 mm 2 mps 709 mmHg 46%
    12:00 +10°C° 0 mm 3 mps 709 mmHg 42%
    13:00 +12°C° 0 mm 3 mps 708 mmHg 38%
    14:00 +11°C° 0 mm 3 mps 707 mmHg 40%
    15:00 +11°C° 0 mm 3 mps 707 mmHg 43%
    16:00 +10°C° 0 mm 3 mps 706 mmHg 48%
    17:00 +8°C° 0 mm 3 mps 706 mmHg 55%
    18:00 +6°C° 0 mm 2 mps 706 mmHg 63%
    19:00 +4°C° 0 mm 2 mps 706 mmHg 70%
    20:00 +4°C° 0 mm 2 mps 706 mmHg 69%
    21:00 +4°C° 0 mm 3 mps 706 mmHg 67%
    22:00 +4°C° 0 mm 3 mps 706 mmHg 66%
    23:00 +4°C° 0.2 mm 4 mps 706 mmHg 69%

    Tomorrow, 24 July, Tuesday

    Time Temperature Precipitation Wind Pressure Humidity
    00:00 +5°C° 0.2 mm 5 mps 705 mmHg 72%
    01:00 +5°C° 0.2 mm 5 mps 705 mmHg 76%
    02:00 +5°C° 0 mm 5 mps 705 mmHg 75%
    03:00 +5°C° 0 mm 5 mps 705 mmHg 75%
    04:00 +5°C° 0 mm 5 mps 704 mmHg 75%
    05:00 +5°C° 0 mm 5 mps 705 mmHg 75%
    06:00 +3°C° 0 mm 5 mps 705 mmHg 76%
    07:00 +3°C° 0 mm 5 mps 705 mmHg 77%
    08:00 +6°C° 0 mm 5 mps 706 mmHg 72%
    09:00 +8°C° 0 mm 6 mps 706 mmHg 68%
    10:00 +9°C° 0 mm 6 mps 706 mmHg 63%
    11:00 +10°C° 0 mm 6 mps 706 mmHg 60%
    12:00 +11°C° 0 mm 6 mps 706 mmHg 56%
    13:00 +12°C° 0 mm 7 mps 706 mmHg 53%
    14:00 +11°C° 0 mm 6 mps 706 mmHg 56%
    15:00 +11°C° 0 mm 6 mps 706 mmHg 59%
    16:00 +10°C° 0 mm 6 mps 705 mmHg 63%
    17:00 +9°C° 0 mm 6 mps 706 mmHg 67%
    18:00 +8°C° 0 mm 6 mps 706 mmHg 72%
    19:00 +7°C° 0 mm 5 mps 706 mmHg 77%
    20:00 +8°C° 0 mm 6 mps 706 mmHg 75%
    21:00 +8°C° 0 mm 6 mps 706 mmHg 72%
    22:00 +8°C° 0 mm 6 mps 707 mmHg 70%
    23:00 +8°C° 0 mm 6 mps 707 mmHg 71%

    Day after tomorrow, 25 July, Wednesday

    Time Temperature Precipitation Wind Pressure Humidity
    00:00 +8°C° 0 mm 5 mps 707 mmHg 71%
    01:00 +7°C° 0 mm 5 mps 707 mmHg 72%
    02:00 +7°C° 0 mm 4 mps 707 mmHg 75%
    03:00 +7°C° 0 mm 4 mps 707 mmHg 79%
    04:00 +8°C° 0 mm 3 mps 707 mmHg 82%
    05:00 +7°C° 0 mm 3 mps 707 mmHg 83%
    06:00 +7°C° 0 mm 3 mps 708 mmHg 84%
    07:00 +7°C° 0 mm 3 mps 708 mmHg 86%
    08:00 +8°C° 0 mm 3 mps 709 mmHg 80%
    09:00 +8°C° 0 mm 4 mps 709 mmHg 74%
    10:00 +9°C° 0 mm 5 mps 709 mmHg 68%
    11:00 +9°C° 0 mm 5 mps 709 mmHg 66%
    12:00 +10°C° 0 mm 5 mps 709 mmHg 65%
    13:00 +10°C° 0 mm 5 mps 708 mmHg 63%
    14:00 +9°C° 0 mm 5 mps 708 mmHg 63%
    15:00 +10°C° 0 mm 4 mps 708 mmHg 63%
    16:00 +10°C° 0 mm 4 mps 708 mmHg 63%
    17:00 +8°C° 0 mm 3 mps 709 mmHg 70%
    18:00 +7°C° 0 mm 3 mps 709 mmHg 77%
    19:00 +5°C° 0 mm 2 mps 709 mmHg 84%
    20:00 +5°C° 0 mm 2 mps 710 mmHg 87%
    21:00 +5°C° 0 mm 1 mps 710 mmHg 89%
    22:00 +4°C° 0 mm 1 mps 711 mmHg 92%
    23:00 +4°C° 0 mm 1 mps 711 mmHg 92%

    26 July, Thursday

    Time Temperature Precipitation Wind Pressure Humidity
    00:00 +4°C° 0 mm 1 mps 711 mmHg 92%
    01:00 +3°C° 0 mm 1 mps 711 mmHg 92%
    02:00 +3°C° 0 mm 1 mps 711 mmHg 92%
    03:00 +3°C° 0 mm 1 mps 710 mmHg 91%
    04:00 +2°C° 0 mm 1 mps 710 mmHg 91%
    05:00 +2°C° 0 mm 1 mps 711 mmHg 91%
    06:00 +2°C° 0 mm 1 mps 711 mmHg 91%
    07:00 +2°C° 0 mm 1 mps 711 mmHg 90%
    08:00 +4°C° 0 mm 1 mps 711 mmHg 79%
    09:00 +7°C° 0 mm 1 mps 712 mmHg 69%
    10:00 +10°C° 0 mm 1 mps 712 mmHg 58%
    11:00 +11°C° 0 mm 1 mps 711 mmHg 53%
    12:00 +12°C° 0 mm 2 mps 711 mmHg 49%
    13:00 +13°C° 0 mm 2 mps 710 mmHg 45%
    14:00 +13°C° 0 mm 2 mps 710 mmHg 47%
    15:00 +13°C° 0 mm 2 mps 709 mmHg 50%
    16:00 +12°C° 0 mm 2 mps 709 mmHg 52%
    17:00 +9°C° 0 mm 2 mps 709 mmHg 63%
    18:00 +7°C° 0 mm 2 mps 709 mmHg 74%
    19:00 +5°C° 0 mm 1 mps 709 mmHg 84%
    20:00 +5°C° 0 mm 1 mps 709 mmHg 86%
    21:00 +5°C° 0 mm 1 mps 709 mmHg 87%
    22:00 +4°C° 0 mm 1 mps 709 mmHg 89%
    23:00 +4°C° 0 mm 1 mps 709 mmHg 89%

    27 July, Friday

    Time Temperature Precipitation Wind Pressure Humidity
    00:00 +4°C° 0 mm 1 mps 708 mmHg 89%
    01:00 +4°C° 0 mm 1 mps 708 mmHg 90%
    02:00 +4°C° 0 mm 1 mps 707 mmHg 91%
    03:00 +4°C° 0 mm 1 mps 707 mmHg 91%
    04:00 +4°C° 0 mm 1 mps 706 mmHg 92%
    05:00 +4°C° 0 mm 1 mps 706 mmHg 92%
    06:00 +4°C° 0 mm 1 mps 706 mmHg 92%
    07:00 +4°C° 0 mm 1 mps 705 mmHg 92%
    08:00 +6°C° 0 mm 1 mps 705 mmHg 81%
    09:00 +9°C° 0 mm 1 mps 705 mmHg 70%
    10:00 +12°C° 0 mm 2 mps 705 mmHg 59%
    11:00 +10°C° 1.2 mm 2 mps 703 mmHg 70%
    12:00 +9°C° 1.2 mm 2 mps 702 mmHg 80%
    13:00 +10°C° 1.2 mm 1 mps 701 mmHg 90%
    14:00 +9°C° 1.7 mm 2 mps 701 mmHg 92%
    15:00 +9°C° 1.7 mm 3 mps 700 mmHg 93%
    16:00 +9°C° 1.7 mm 3 mps 700 mmHg 95%
    17:00 +8°C° 0.3 mm 3 mps 699 mmHg 95%
    18:00 +8°C° 0.3 mm 2 mps 699 mmHg 95%
    19:00 +7°C° 0.3 mm 2 mps 699 mmHg 95%
    20:00 +7°C° 0.3 mm 2 mps 699 mmHg 94%
    21:00 +7°C° 0.3 mm 3 mps 699 mmHg 94%
    22:00 +7°C° 0.3 mm 3 mps 699 mmHg 93%
    23:00 +5°C° 0.4 mm 3 mps 699 mmHg 94%

    28 July, Saturday

    Time Temperature Precipitation Wind Pressure Humidity
    00:00 +5°C° 0.4 mm 4 mps 698 mmHg 94%
    01:00 +5°C° 0.4 mm 4 mps 698 mmHg 95%
    02:00 +5°C° 0.1 mm 4 mps 698 mmHg 94%
    03:00 +5°C° 0.1 mm 4 mps 698 mmHg 94%
    04:00 +5°C° 0.1 mm 4 mps 698 mmHg 93%
    05:00 +5°C° 0 mm 4 mps 699 mmHg 93%
    06:00 +4°C° 0 mm 4 mps 699 mmHg 92%
    07:00 +4°C° 0 mm 4 mps 700 mmHg 92%
    08:00 +5°C° 0 mm 4 mps 700 mmHg 87%
    09:00 +6°C° 0 mm 4 mps 701 mmHg 82%
    10:00 +7°C° 0 mm 5 mps 702 mmHg 77%
    11:00 +8°C° 0 mm 5 mps 701 mmHg 73%
    12:00 +9°C° 0 mm 5 mps 701 mmHg 69%
    13:00 +10°C° 0 mm 6 mps 701 mmHg 65%
    14:00 +9°C° 0 mm 5 mps 701 mmHg 68%
    15:00 +9°C° 0 mm 5 mps 701 mmHg 70%
    16:00 +8°C° 0 mm 5 mps 701 mmHg 73%
    17:00 +7°C° 0 mm 5 mps 702 mmHg 76%
    18:00 +6°C° 0 mm 4 mps 702 mmHg 80%
    19:00 +6°C° 0 mm 4 mps 703 mmHg 84%
    20:00 +5°C° 0 mm 4 mps 703 mmHg 86%
    21:00 +5°C° 0 mm 4 mps 703 mmHg 88%
    22:00 +5°C° 0 mm 3 mps 703 mmHg 90%
    23:00 +4°C° 0 mm 3 mps 703 mmHg 89%
    Show more